Akron, CO

10:55 AM MDT on June 22, 2017 (GMT -0600)
Akron-Washington County

Weather History for KAKO - December, 2011

Change the Weather History Date:

Thursday, December 1, 2011

  Actual Average Record
Temperature  
Mean Temperature 22 °F 31 °F  
Max Temperature 31 °F 42 °F 70 °F (1998)
Min Temperature 12 °F 19 °F -14 °F (1985)
Degree Days  
Heating Degree Days 43    
Month to date heating degree days 43  
Cooling Degree Days 0    
Month to date cooling degree days 0  
Moisture  
Dew Point 19 °F    
Average Humidity 87    
Maximum Humidity 92    
Minimum Humidity 81    
Precipitation  
Precipitation T in 0.02 in 0.14 in (1950)
Month to date precipitation T 0.02  
Year to date precipitation 16.36  
Sea Level Pressure  
Sea Level Pressure 30.44 in    
Wind  
Wind Speed 17 mph (North)    
Max Wind Speed 29 mph    
Max Gust Speed 36 mph    
Visibility 5 miles    
Events Snow    
T = Trace of Precipitation, MM = Missing Value Source: NWS Daily Summary

Daily Weather History Graph

Daily Weather History Graph

Search for Another Location

Airport or City:

Trip Planner

Search our weather history database for the weather conditions in past years. The results will help you decide how hot, cold, wet, or windy it might be!

Date:

Astronomy

Dec. 01, 2011 Rise Set
Actual Time 6:55 AM MST 4:27 PM MST
Civil Twilight 6:25 AM MST 4:57 PM MST
Nautical Twilight 5:52 AM MST 5:31 PM MST
Astronomical Twilight 5:19 AM MST 6:04 PM MST
Moon 11:41 AM MST (12/1) 11:28 PM MST (12/1)
Length of Visible Light 10h 32m
Length of Day
9h 31m
Waxing Crescent, 44% of the Moon is Illuminated
Dec 1
Waxing Crescent
Dec 2
First Quarter
Dec 10
Full
Dec 17
Last Quarter
Dec 24
New

Hourly Weather History & Observations

Time (MST) Temp. Windchill Dew Point Humidity Pressure Visibility Wind Dir Wind Speed Gust Speed Precip Events Conditions
12:53 AM 25.0 °F 13.6 °F 21.9 °F 88% 30.06 in 10.0 mi North 12.7 mph - N/A   Clear
1:53 AM 26.1 °F 15.0 °F 21.9 °F 84% 30.10 in 10.0 mi NW 12.7 mph - N/A   Partly Cloudy
2:53 AM 28.0 °F 18.1 °F 25.0 °F 88% 30.16 in 10.0 mi NNW 11.5 mph - N/A   Overcast
3:53 AM 30.0 °F 18.7 °F 26.1 °F 85% 30.19 in 10.0 mi North 16.1 mph - N/A   Overcast
5:33 AM 28.4 °F 15.1 °F 26.6 °F 93% 30.25 in 3.0 mi North 20.7 mph 26.5 mph 0.00 in Snow Light Snow
6:38 AM 26.6 °F 12.0 °F 24.8 °F 93% 30.30 in 2.5 mi North 23.0 mph 31.1 mph 0.00 in Snow Light Snow
6:53 AM 27.0 °F 12.8 °F 25.0 °F 92% 30.39 in 2.0 mi North 21.9 mph 27.6 mph 0.00 in Snow Light Snow
7:01 AM 26.6 °F 12.4 °F 24.8 °F 93% 30.32 in 1.5 mi North 21.9 mph 28.8 mph 0.00 in Snow Light Snow
7:10 AM 26.6 °F 12.0 °F 24.8 °F 93% 30.33 in 1.0 mi North 23.0 mph 29.9 mph 0.00 in Snow Light Snow
7:22 AM 26.6 °F 12.4 °F 24.8 °F 93% 30.34 in 1.0 mi North 21.9 mph 33.4 mph 0.00 in Snow Light Snow
7:29 AM 26.6 °F 12.0 °F 24.8 °F 93% 30.34 in 1.0 mi North 23.0 mph - 0.00 in Snow Light Snow
7:36 AM 26.6 °F 12.4 °F 24.8 °F 93% 30.35 in 1.2 mi North 21.9 mph - 0.00 in Snow Light Snow
7:41 AM 26.6 °F 12.7 °F 24.8 °F 93% 30.35 in 1.0 mi North 20.7 mph - 0.00 in Snow Light Snow
7:48 AM 26.6 °F 12.7 °F 24.8 °F 93% 30.36 in 1.0 mi NNE 20.7 mph 28.8 mph 0.00 in Snow Light Snow
7:53 AM 26.1 °F 12.0 °F 23.0 °F 88% 30.46 in 1.0 mi NNE 20.7 mph 28.8 mph 0.00 in Snow Light Snow
8:00 AM 26.6 °F 12.7 °F 23.0 °F 86% 30.37 in 0.8 mi NNE 20.7 mph 27.6 mph 0.00 in Snow Light Snow
8:20 AM 24.8 °F 8.7 °F 23.0 °F 93% 30.38 in 1.0 mi NNE 26.5 mph 32.2 mph 0.00 in Snow Light Snow
8:40 AM 24.8 °F 8.1 °F 21.2 °F 86% 30.39 in 0.8 mi NNE 28.8 mph 35.7 mph 0.00 in Snow Light Snow
8:50 AM 24.8 °F 9.3 °F 21.2 °F 86% 30.40 in 1.0 mi NNE 24.2 mph 32.2 mph 0.00 in Snow Light Snow
8:53 AM 25.0 °F 9.9 °F 21.9 °F 88% 30.51 in 1.0 mi NNE 23.0 mph 32.2 mph 0.00 in Snow Light Snow
9:26 AM 24.8 °F 9.6 °F 21.2 °F 86% 30.42 in 1.2 mi North 23.0 mph 28.8 mph 0.00 in Snow Light Snow
9:40 AM 23.0 °F 6.6 °F 19.4 °F 86% 30.43 in 1.8 mi North 25.3 mph - 0.00 in Snow Light Snow
9:49 AM 23.0 °F 7.6 °F 19.4 °F 86% 30.44 in 1.8 mi North 21.9 mph 29.9 mph 0.00 in Snow Light Snow
9:53 AM 23.0 °F 6.6 °F 19.0 °F 85% 30.56 in 1.8 mi North 25.3 mph 31.1 mph 0.00 in Snow Light Snow
9:56 AM 23.0 °F 7.2 °F 19.4 °F 86% 30.45 in 2.0 mi NNE 23.0 mph 31.1 mph 0.00 in Snow Light Snow
10:21 AM 23.0 °F 7.6 °F 19.4 °F 86% 30.46 in 2.0 mi North 21.9 mph - 0.00 in Snow Light Snow
10:28 AM 23.0 °F 7.2 °F 19.4 °F 86% 30.46 in 3.0 mi North 23.0 mph - 0.00 in Snow Light Snow
10:48 AM 23.0 °F 6.9 °F 17.6 °F 80% 30.47 in 4.0 mi North 24.2 mph 32.2 mph 0.00 in Snow Light Snow
10:53 AM 21.9 °F 5.1 °F 17.1 °F 82% 30.60 in 6.0 mi North 25.3 mph 31.1 mph 0.00 in Snow Light Snow
11:33 AM 21.2 °F 6.0 °F 17.6 °F 86% 30.47 in 8.0 mi North 19.6 mph 24.2 mph 0.00 in   Overcast
11:53 AM 23.0 °F 8.7 °F 18.0 °F 81% 30.60 in 8.0 mi North 18.4 mph - 0.00 in Snow Light Snow
12:44 PM 23.0 °F 8.7 °F 17.6 °F 80% 30.46 in 2.5 mi North 18.4 mph - 0.00 in Snow Light Snow
12:53 PM 23.0 °F 9.6 °F 18.0 °F 81% 30.60 in 2.5 mi North 16.1 mph - 0.00 in Snow Light Snow
1:22 PM 21.2 °F 6.8 °F 17.6 °F 86% 30.46 in 3.0 mi North 17.3 mph - 0.00 in Snow Light Snow
1:33 PM 21.2 °F 7.3 °F 17.6 °F 86% 30.46 in 3.0 mi North 16.1 mph - 0.00 in Snow Light Snow
2:31 PM 21.2 °F 8.3 °F 17.6 °F 86% 30.47 in 5.0 mi North 13.8 mph - 0.00 in Snow Light Snow
2:53 PM 21.0 °F 7.1 °F 17.1 °F 85% 30.61 in 6.0 mi North 16.1 mph - 0.00 in Snow Light Snow
3:02 PM 21.2 °F 8.3 °F 17.6 °F 86% 30.48 in 7.0 mi North 13.8 mph - 0.00 in   Overcast
3:27 PM 19.4 °F 7.2 °F 15.8 °F 86% 30.47 in 10.0 mi North 11.5 mph - 0.00 in   Overcast
3:38 PM 19.4 °F 6.6 °F 15.8 °F 86% 30.48 in 8.0 mi North 12.7 mph - 0.00 in   Overcast
3:53 PM 19.9 °F 7.9 °F 16.0 °F 85% 30.61 in 6.0 mi North 11.5 mph - 0.00 in   Overcast
4:03 PM 19.4 °F 8.6 °F 15.8 °F 86% 30.47 in 5.0 mi NNE 9.2 mph - N/A   Overcast
4:45 PM 19.4 °F 10.4 °F 15.8 °F 86% 30.47 in 10.0 mi North 6.9 mph - N/A   Overcast
4:53 PM 19.0 °F 11.1 °F 15.1 °F 85% 30.60 in 10.0 mi North 5.8 mph - N/A   Overcast
5:53 PM 16.0 °F 8.8 °F 14.0 °F 92% 30.63 in 10.0 mi NNW 4.6 mph - N/A   Overcast
6:53 PM 17.1 °F 11.7 °F 14.0 °F 88% 30.63 in 10.0 mi WNW 3.5 mph - N/A   Overcast
7:39 PM 14.0 °F 5.1 °F 12.2 °F 93% 30.45 in 10.0 mi West 5.8 mph - N/A   Scattered Clouds
7:53 PM 14.0 °F 5.1 °F 10.9 °F 88% 30.61 in 10.0 mi West 5.8 mph - N/A   Clear
8:53 PM 12.0 °F 1.5 °F 10.0 °F 92% 30.60 in 10.0 mi SW 6.9 mph - N/A   Clear
9:53 PM 12.9 °F 1.6 °F 10.9 °F 92% 30.57 in 10.0 mi SW 8.1 mph - N/A   Clear
10:53 PM 15.1 °F 1.1 °F 12.0 °F 88% 30.54 in 10.0 mi SW 12.7 mph - N/A   Clear
11:53 PM 14.0 °F 2.0 °F 12.0 °F 92% 30.50 in 10.0 mi SSW 9.2 mph - N/A   Clear